Stations météo

Publicité
Tholey, Allemagne (10706): Température de l'air & dewpoint: 06.07.2020 10:00:00 - 12.07.2020 10:00:00 (CEST)Tholey, Allemagne (10706): Température de l'air 5cm & Température de l'air -5cm: 06.07.2020 10:00:00 - 12.07.2020 10:00:00 (CEST)Tholey, Allemagne (10706): Température de l'air -20cm & Température de l'air -100cm: 06.07.2020 10:00:00 - 12.07.2020 10:00:00 (CEST)Tholey, Allemagne (10706): Vitesse du vent & gusts: 06.07.2020 10:00:00 - 12.07.2020 10:00:00 (CEST)Tholey, Allemagne (10706): Direction du vent: 06.07.2020 10:00:00 - 12.07.2020 10:00:00 (CEST)Tholey, Allemagne (10706): reduced air pressure: 06.07.2020 10:00:00 - 12.07.2020 10:00:00 (CEST)Tholey, Allemagne (10706): visibility: 06.07.2020 10:00:00 - 12.07.2020 10:00:00 (CEST)Tholey, Allemagne (10706): Ensoleillement: 06.07.2020 10:00:00 - 12.07.2020 10:00:00 (CEST)Tholey, Allemagne (10706): Quantités de précipitations: 06.07.2020 10:00:00 - 12.07.2020 10:00:00 (CEST)
Date & Time tt [°C] td [°C] tt 5cm [°C] tt -5cm [°C] tt -20cm [°C] tt -100cm [°C] ff [km/h] ff [knt] fx [km/h] fx [knt] dd ppp [hPa] vv [km] sd [min] rr [mm]
12.07.2020 10:00:00 17,6 7,7 22,4 21,6 18,9 17,0 13 7 23 12 ENE 1026,1 53 60 0,0
12.07.2020 09:00:00 16,0 8,3 19,4 18,5 19,0 17,0 14 8 21 11 NE 1026,3 69 60 0,0
12.07.2020 08:00:00 13,9 7,6 15,5 16,0 19,3 17,0 15 8 23 12 ENE 1026,3 68 60 0,0
12.07.2020 07:00:00 12,2 7,2 12,3 14,4 19,6 17,0 15 8 21 11 NE 1026,3 61 54 0,0
12.07.2020 06:00:00 11,6 7,1 9,9 14,4 20,0 17,0 16 8 24 13 NE 1026,0 62 0 0,0
12.07.2020 05:00:00 11,9 7,0 10,2 14,8 20,3 17,0 18 10 24 13 NE 1025,8 62 0 0,0
12.07.2020 04:00:00 12,0 7,0 10,1 15,4 20,7 17,0 16 8 24 13 NE 1025,8 63 0 0,0
12.07.2020 03:00:00 12,4 6,7 10,6 16,0 21,1 17,0 16 9 24 13 NE 1025,9 73 0 0,0
12.07.2020 02:00:00 13,1 6,5 11,4 16,8 21,5 17,0 18 10 27 14 NE 1025,9 64 0 0,0
12.07.2020 01:00:00 13,7 6,5 12,0 17,7 22,0 17,0 17 9 27 14 NNE 1025,9 68 0 0,0
12.07.2020 00:00:00 14,3 5,5 12,0 18,9 22,3 17,0 12 6 16 9 NNE 1025,6 74 0 0,0
11.07.2020 23:00:00 15,4 5,6 12,7 20,3 22,7 16,9 11 6 16 9 NE 1025,2 75 0 0,0
11.07.2020 22:00:00 16,4 6,0 14,5 22,1 22,9 16,9 11 6 15 8 NNE 1024,8 68 6 0,0
11.07.2020 21:00:00 17,2 5,7 16,6 24,2 22,9 16,9 10 6 22 12 NNE 1024,4 70 11 0,0
11.07.2020 20:00:00 18,8 4,2 21,6 26,5 22,8 16,9 11 6 19 11 NE 1023,8 75 58 0,0
11.07.2020 19:00:00 19,5 4,5 23,2 29,4 22,4 16,9 12 7 22 12 N 1023,4 65 59 0,0
11.07.2020 18:00:00 20,4 3,9 25,2 30,4 21,9 16,9 6 3 21 11 N 1023,2 75 52 0,0
11.07.2020 17:00:00 19,3 4,8 25,4 32,2 21,3 16,9 13 7 25 14 N 1023,4 62 58 0,0
11.07.2020 16:00:00 20,9 6,2 27,5 29,6 20,8 16,9 10 5 24 13 WNW 1023,1 52 31 0,0
11.07.2020 15:00:00 18,5 4,2 24,5 31,3 20,2 16,9 16 9 24 13 NE 1023,3 68 54 0,0
11.07.2020 14:00:00 19,6 5,1 27,3 27,9 19,7 16,9 9 5 26 14 W 1023,1 64 33 0,0
11.07.2020 13:00:00 18,6 5,2 26,3 27,1 19,1 16,9 8 4 23 12 NE 1023,3 61 46 0,0
11.07.2020 12:00:00 17,0 5,3 22,0 26,0 18,7 16,9 10 5 21 11 NNW 1023,3 75 48 0,0
11.07.2020 11:00:00 16,2 5,9 21,1 22,7 18,5 16,9 9 5 16 9 NW 1023,0 75 35 0,0
11.07.2020 10:00:00 17,3 8,2 21,6 20,3 18,4 16,9 7 4 17 9 ESE 1022,7 63 48 0,0
11.07.2020 09:00:00 14,3 8,3 18,2 18,2 18,5 16,9 11 6 18 10 NE 1023,0 54 60 0,0
11.07.2020 08:00:00 13,3 9,0 14,8 15,8 18,7 16,9 10 5 16 8 NE 1022,5 69 60 0,0
11.07.2020 07:00:00 12,2 8,9 12,1 14,2 19,0 16,9 8 4 14 7 NE 1022,2 40 52 0,0
11.07.2020 06:00:00 11,1 9,0 8,8 14,1 19,3 16,9 10 6 14 7 NE 1021,8 55 0 0,0
11.07.2020 05:00:00 11,9 9,2 9,4 14,8 19,7 16,9 10 5 14 7 NNE 1021,2 68 0 0,0
11.07.2020 04:00:00 11,6 9,2 8,9 15,6 19,9 16,9 7 4 13 7 NE 1021,0 69 0 0,0
11.07.2020 03:00:00 13,4 9,5 11,7 16,4 20,2 16,9 10 5 16 9 NNE 1020,7 68 0 0,0
11.07.2020 02:00:00 14,1 9,5 12,2 17,3 20,5 16,8 10 5 16 9 NE 1020,2 75 0 0,0
11.07.2020 01:00:00 14,7 10,0 14,1 17,9 20,7 16,8 9 5 22 12 NE 1019,5 75 0 0,0
11.07.2020 00:00:00 15,4 9,9 14,6 18,7 20,9 16,8 10 6 27 15 NE 1018,8 68 0 0,0
10.07.2020 23:00:00 16,2 10,4 15,8 19,4 21,1 16,8 14 7 24 13 NNE 1017,8 75 0 0,0
10.07.2020 22:00:00 17,1 10,3 16,5 20,2 21,2 16,8 11 6 22 12 NNW 1017,0 75 0 0,0
10.07.2020 21:00:00 18,0 10,9 17,4 21,3 21,3 16,8 10 5 25 14 WNW 1016,3 75 0 0,0
10.07.2020 20:00:00 18,4 10,9 18,4 22,5 21,3 16,8 12 7 24 13 W 1016,0 70 0 0,0
10.07.2020 19:00:00 18,9 11,4 20,1 23,4 21,3 16,8 10 5 29 16 WNW 1015,2 71 1 0,0
10.07.2020 18:00:00 19,1 12,1 20,5 23,9 21,2 16,8 14 7 29 16 WNW 1015,5 71 0 0,0
10.07.2020 17:00:00 19,0 11,0 20,0 24,7 20,9 16,8 19 11 37 20 WNW 1015,2 59 0 0,0
10.07.2020 16:00:00 20,5 10,8 23,1 26,5 20,7 16,8 22 12 41 22 W 1014,6 57 40 0,0
10.07.2020 15:00:00 20,0 11,3 22,2 24,9 20,5 16,8 22 12 39 21 W 1014,5 75 32 0,0
10.07.2020 14:00:00 18,6 12,1 20,2 23,3 20,4 16,8 19 11 36 19 WNW 1014,4 75 4 0,0
10.07.2020 13:00:00 18,3 12,2 20,3 22,4 20,3 16,8 27 15 44 24 WSW 1014,0 62 0 0,0
10.07.2020 12:00:00 18,1 12,2 20,2 21,6 20,3 16,8 25 14 54 29 W 1013,4 65 1 0,0
10.07.2020 11:00:00 18,0 12,7 19,1 22,0 20,2 16,8 27 15 47 25 W 1012,5 74 9 0,0
10.07.2020 10:00:00 18,1 13,4 19,8 21,0 20,3 16,8 22 12 37 20 W 1012,1 75 3 0,0
10.07.2020 09:00:00 17,9 13,6 18,6 19,9 20,4 16,8 16 9 27 15 W 1011,6 52 0 0,0
10.07.2020 08:00:00 17,4 13,0 17,6 19,3 20,6 16,8 14 8 20 11 W 1011,1 68 34 0,0
10.07.2020 07:00:00 17,1 12,1 16,7 18,1 20,8 16,8 15 8 25 14 W 1010,9 69 12 0,0
10.07.2020 06:00:00 17,7 11,9 16,1 18,3 21,1 16,8 11 6 16 8 W 1010,3 63 0 0,0
10.07.2020 05:00:00 18,7 12,0 16,6 18,8 21,4 16,8 9 5 13 7 W 1010,0 62 0 0,0
10.07.2020 04:00:00 19,3 12,1 16,6 19,4 21,6 16,8 9 5 13 7 W 1010,3 58 0 0,0
10.07.2020 03:00:00 21,0 11,9 16,5 20,2 21,9 16,8 5 3 10 5 WSW 1010,5 59 0 0,0
10.07.2020 02:00:00 21,5 11,7 18,7 20,9 22,1 16,8 6 3 14 7 SW 1010,8 65 0 0,0
10.07.2020 01:00:00 22,2 11,8 19,3 21,5 22,4 16,8 5 3 10 5 SW 1011,2 68 0 0,0
10.07.2020 00:00:00 22,3 11,7 18,0 22,2 22,6 16,8 4 2 7 4 SW 1011,5 54 0 0,0
09.07.2020 23:00:00 23,0 11,9 19,7 23,5 22,8 16,8 6 3 9 5 W 1011,8 67 0 0,0
09.07.2020 22:00:00 23,8 12,0 21,7 24,7 22,9 16,8 8 4 21 11 W 1011,7 66 0 0,0
09.07.2020 21:00:00 25,0 11,4 24,1 26,0 22,8 16,8 16 8 34 19 W 1011,6 67 52 0,0
09.07.2020 20:00:00 26,1 11,2 25,7 27,7 22,7 16,8 21 11 44 24 W 1011,6 65 55 0,0
09.07.2020 19:00:00 26,8 11,0 27,7 29,4 22,3 16,8 27 15 45 25 W 1011,6 57 57 0,0
09.07.2020 18:00:00 27,3 12,2 30,0 30,6 21,9 16,8 22 12 45 25 W 1011,9 68 48 0,0
09.07.2020 17:00:00 27,2 11,8 30,7 31,8 21,3 16,8 25 14 48 26 W 1012,6 73 57 0,0
09.07.2020 16:00:00 25,7 11,6 28,3 32,1 20,7 16,8 31 17 47 25 WSW 1013,2 69 57 0,0
09.07.2020 15:00:00 26,3 11,2 31,3 31,9 20,0 16,8 30 16 45 25 WSW 1013,6 71 59 0,0
09.07.2020 14:00:00 25,5 12,7 30,7 30,6 19,4 16,8 25 14 46 25 W 1014,1 72 58 0,0
09.07.2020 13:00:00 24,2 13,4 28,9 28,8 18,8 16,8 22 12 42 23 W 1014,6 61 59 0,0
09.07.2020 12:00:00 22,7 13,4 26,3 27,1 18,4 16,8 29 16 42 23 WSW 1014,8 46 60 0,0
09.07.2020 11:00:00 21,5 14,9 25,2 24,2 18,1 16,8 22 12 35 19 WSW 1015,4 75 60 0,0
09.07.2020 10:00:00 19,3 15,4 23,3 21,1 18,0 16,8 13 7 21 11 SW 1015,8 49 60 0,0
09.07.2020 09:00:00 16,6 14,9 17,0 18,2 18,0 16,8 10 5 16 9 W 1016,5 38 34 0,0
09.07.2020 08:00:00 15,1 14,4 15,4 16,5 18,1 16,8 10 5 12 6 W 1016,9 19 0 0,0
09.07.2020 07:00:00 14,6 14,1 14,5 15,8 18,2 16,8 9 5 11 6 W 1017,0 15 0 0,0
09.07.2020 06:00:00 14,6 14,1 13,7 15,6 18,4 16,8 9 5 11 6 W 1016,9 21 0 0,0
09.07.2020 05:00:00 14,4 14,1 13,2 15,5 18,6 16,8 6 4 9 5 WSW 1016,9 1,2 0 0,0
09.07.2020 04:00:00 14,9 14,3 12,7 15,8 18,8 16,8 5 3 9 5 W 1016,9 24 0 0,0
09.07.2020 03:00:00 15,0 14,5 13,4 16,1 19,0 16,8 8 4 12 7 W 1017,0 24 0 0,0
09.07.2020 02:00:00 15,6 14,6 14,3 16,6 19,2 16,8 11 6 13 7 W 1017,2 42 0 0,0
09.07.2020 01:00:00 15,5 14,9 14,1 17,3 19,3 16,8 8 4 10 5 W 1017,5 31 0 0,0
09.07.2020 00:00:00 15,7 15,0 14,6 18,2 19,5 16,8 5 3 6 3 SW 1017,7 32 0 0,0
08.07.2020 23:00:00 16,1 15,0 15,7 18,6 19,6 16,8 5 3 8 4 SW 1017,7 50 0 0,0
08.07.2020 22:00:00 16,2 15,1 15,6 19,1 19,7 16,8 6 3 11 6 SW 1017,4 46 0 0,0
08.07.2020 21:00:00 16,5 14,7 15,8 19,8 19,7 16,8 8 4 21 11 W 1017,1 38 0 0,1
08.07.2020 20:00:00 17,5 13,8 17,9 20,8 19,7 16,8 3 1 9 5 E 1016,8 63 0 0,0
08.07.2020 19:00:00 17,4 13,5 18,3 21,5 19,6 16,8 5 3 14 8 E 1016,9 67 0 0,0
08.07.2020 18:00:00 17,4 13,3 18,3 22,4 19,4 16,8 12 6 27 15 NNW 1017,0 31 0 0,0
08.07.2020 17:00:00 20,0 11,6 21,5 22,6 19,2 16,8 19 10 37 20 WNW 1016,3 64 0 0,0
08.07.2020 16:00:00 20,1 10,1 21,2 23,1 19,0 16,8 29 15 43 23 W 1016,1 58 1 0,0
08.07.2020 15:00:00 19,0 9,6 20,5 21,5 18,7 16,8 16 9 33 18 W 1016,4 43 0 0,0
08.07.2020 14:00:00 19,0 10,1 21,9 22,5 18,5 16,8 22 12 35 19 WSW 1016,6 53 17 0,0
08.07.2020 13:00:00 18,4 8,9 22,4 20,9 18,3 16,8 19 10 33 18 W 1016,8 46 6 0,0
08.07.2020 12:00:00 16,1 7,9 17,2 19,0 18,2 16,8 18 10 34 18 W 1017,3 74 0 0,0
08.07.2020 11:00:00 15,7 8,6 16,9 19,1 18,2 16,8 23 12 31 17 WSW 1017,3 49 0 0,0
08.07.2020 10:00:00 14,7 8,7 16,5 18,1 18,2 16,8 18 10 23 13 WSW 1017,3 40 2 0,0
08.07.2020 09:00:00 13,6 8,5 16,0 16,5 18,3 16,8 13 7 18 10 W 1017,3 75 14 0,0
08.07.2020 08:00:00 11,9 7,7 12,4 15,1 18,5 16,8 14 7 18 10 W 1017,6 48 0 0,0
08.07.2020 07:00:00 11,3 7,3 11,2 14,6 18,8 16,8 13 7 16 9 W 1017,6 55 0 0,0
08.07.2020 06:00:00 11,5 7,1 10,8 14,5 19,1 16,8 10 5 16 9 WSW 1017,6 64 0 0,0
08.07.2020 05:00:00 11,4 7,0 9,6 14,6 19,4 16,8 12 6 13 7 W 1017,5 60 0 0,0
08.07.2020 04:00:00 12,6 6,9 10,9 15,2 19,7 16,8 10 6 13 7 W 1017,6 66 0 0,0
08.07.2020 03:00:00 13,7 6,8 11,6 15,7 20,1 16,8 9 5 11 6 W 1018,1 56 0 0,0
08.07.2020 02:00:00 13,0 6,8 9,5 16,3 20,4 16,8 5 3 10 5 SW 1018,5 75 0 0,0
08.07.2020 01:00:00 14,6 6,7 11,4 17,0 20,8 16,8 8 5 10 6 W 1018,6 64 0 0,0
08.07.2020 00:00:00 15,2 6,6 11,2 18,0 21,1 16,8 7 4 12 7 WSW 1018,7 66 0 0,0
07.07.2020 23:00:00 15,9 6,7 12,0 19,1 21,4 16,8 7 4 9 5 W 1018,6 71 0 0,0
07.07.2020 22:00:00 16,9 6,5 13,0 20,7 21,6 16,8 4 2 13 7 W 1018,4 67 11 0,0
07.07.2020 21:00:00 18,3 5,8 16,8 22,6 21,7 16,8 9 5 21 11 W 1018,2 75 56 0,0
07.07.2020 20:00:00 19,5 5,6 19,9 24,8 21,6 16,9 15 8 27 15 WNW 1017,9 74 35 0,0
07.07.2020 19:00:00 19,1 5,3 19,7 26,8 21,3 16,9 12 7 27 14 W 1018,2 75 37 0,0
07.07.2020 18:00:00 20,3 4,9 24,3 28,8 20,9 16,9 10 6 23 12 WSW 1018,3 75 50 0,0
07.07.2020 17:00:00 19,7 4,2 24,9 29,0 20,4 16,9 14 8 25 14 WSW 1018,9 75 35 0,0
07.07.2020 16:00:00 19,6 5,6 24,8 30,2 19,7 16,9 10 5 24 13 WSW 1019,4 58 54 0,0
07.07.2020 15:00:00 20,1 6,0 26,6 28,6 19,1 16,9 9 5 26 14 WSW 1019,9 71 35 0,0
07.07.2020 14:00:00 18,4 5,7 21,9 28,9 18,4 16,9 9 5 21 11 W 1020,6 74 41 0,0
07.07.2020 13:00:00 17,5 5,0 21,3 28,6 17,8 16,9 13 7 23 12 WSW 1021,0 75 58 0,0
07.07.2020 12:00:00 17,8 7,1 22,9 24,1 17,4 16,9 8 5 16 9 SW 1021,1 58 39 0,0
07.07.2020 11:00:00 15,7 6,2 18,1 23,3 17,0 16,9 8 4 14 8 WNW 1021,5 70 54 0,0
07.07.2020 10:00:00 15,3 6,9 19,9 20,2 16,8 16,9 9 5 15 8 SE 1022,2 62 60 0,0
07.07.2020 09:00:00 14,7 7,3 18,1 16,9 16,8 16,9 6 3 10 6 E 1022,1 71 60 0,0
07.07.2020 08:00:00 12,3 7,7 13,9 14,0 17,0 16,9 4 2 6 3 E 1022,4 64 60 0,0
07.07.2020 07:00:00 10,4 6,7 10,4 11,8 17,3 16,9 5 3 9 5 ENE 1022,9 55 60 0,0
07.07.2020 06:00:00 10,7 5,8 5,3 11,4 17,6 16,9 0 0 4 2 N 1022,7 58 3 0,0
07.07.2020 05:00:00 10,8 5,9 5,4 11,9 18,0 16,9 3 2 6 3 E 1022,8 74 0 0,0
07.07.2020 04:00:00 10,6 5,8 5,6 12,5 18,3 16,9 4 2 10 5 N 1022,8 58 0 0,0
07.07.2020 03:00:00 10,4 5,5 8,1 13,3 18,6 16,9 8 4 24 13 N 1023,0 68 0 0,0
07.07.2020 02:00:00 13,4 5,2 10,9 13,8 18,9 16,9 14 8 29 15 NW 1022,5 62 0 0,0
07.07.2020 01:00:00 14,0 5,3 11,0 14,4 19,2 16,9 11 6 21 12 NW 1022,4 74 0 0,0
07.07.2020 00:00:00 14,1 5,7 10,6 15,1 19,5 16,8 6 3 17 9 NW 1022,3 63 0 0,0
06.07.2020 23:00:00 14,5 6,0 11,1 16,0 19,8 16,8 8 4 21 11 NW 1022,0 66 0 0,0
06.07.2020 22:00:00 15,0 6,3 12,6 17,2 20,0 16,8 7 4 21 12 WNW 1021,3 61 10 0,0
06.07.2020 21:00:00 15,4 7,8 14,0 18,8 20,2 16,8 10 5 18 10 WNW 1020,7 57 20 0,0
06.07.2020 20:00:00 15,4 8,3 15,0 19,7 20,2 16,8 13 7 22 12 W 1020,4 48 42 0,0
06.07.2020 19:00:00 14,9 9,6 13,6 21,2 20,1 16,8 11 6 41 22 W 1020,2 52 23 0,2
06.07.2020 18:00:00 17,2 5,9 19,7 23,4 19,9 16,8 24 13 48 26 W 1019,3 63 24 0,0
06.07.2020 17:00:00 17,4 6,3 18,8 24,6 19,6 16,8 19 11 40 22 W 1018,8 67 38 0,0
06.07.2020 16:00:00 16,6 4,8 18,8 24,5 19,3 16,8 27 14 47 25 W 1018,6 54 23 0,0
06.07.2020 15:00:00 16,5 4,8 18,3 23,7 19,0 16,8 21 12 42 23 W 1018,3 67 22 0,0
06.07.2020 14:00:00 17,2 6,2 21,0 23,4 18,7 16,8 22 12 43 23 W 1018,0 39 34 0,0
06.07.2020 13:00:00 15,2 5,7 17,5 22,0 18,4 16,8 24 13 39 21 W 1018,1 50 21 0,0
06.07.2020 12:00:00 14,8 5,7 17,7 20,7 18,3 16,8 22 12 32 17 WSW 1017,9 44 23 0,0
06.07.2020 11:00:00 14,1 6,5 16,6 18,4 18,3 16,8 16 9 39 21 WNW 1017,9 55 13 0,0
06.07.2020 10:00:00 13,0 6,6 15,9 16,7 18,4 16,8 19 11 36 20 W 1017,8 38 8 0,0

tt = Température de l'air
td = dewpoint
tt 5cm = Température de l'air 5cm
tt -5cm = Température de l'air -5cm
tt -20cm = Température de l'air -20cm
tt -100cm = Température de l'air -100cm
ff = Vitesse du vent
fx = gusts
dd = Direction du vent
ppp = reduced air pressure
vv = visibility
sd = Ensoleillement
rr = Quantités de précipitations

stations d'obs. à proximité